Temperature
4 4 4 4 4 4 4 5 5 5 5 5 6 6 6 6 6 6 6 6 6 6 6 6 7 7 7 7 7 7 7 7 7 7 7 8 8 8 8 8 8 8 8
3 4 4 4 4 4 4 4 4 4 5 5 5 5 5 6 6 6 6 6 6 6 6 6 6 6 6 6 6 6 6 6 6 6 6 6 7 7 7 7 7 7 7
3 3 3 4 4 4 4 4 4 4 4 4 4 4 5 5 5 5 5 5 5 5 5 5 5 5 6 6 6 6 6 6 6 5 5 5 6 6 6 6 7 7 7
3 3 3 3 3 3 3 3 3 3 3 4 4 4 4 4 5 5 5 5 4 4 5 5 5 5 5 5 5 5 5 5 5 5 5 5 5 5 5 5 6 6 6
3 3 3 3 3 3 3 3 3 3 3 3 3 3 3 4 4 4 4 4 4 4 4 4 4 4 4 4 4 4 4 4 4 4 4 4 4 5 4 5 5 5 6
3 3 3 3 3 3 3 3 3 3 2 2 3 3 3 3 3 3 3 3 3 3 3 3 3 4 4 4 4 4 4 4 4 4 3 4 4 4 4 4 5 5 5
2 2 2 2 2 2 2 2 2 2 2 2 2 2 2 2 2 2 2 2 3 3 3 3 3 3 3 3 3 3 3 3 3 3 3 3 3 3 3 3 4 4 4
2 2 2 2 2 2 2 2 1 1 1 1 1 1 1 1 2 2 2 2 2 2 2 2 2 2 2 2 2 2 2 2 2 2 2 2 2 2 2 3 3 3 3
1 1 1 1 1 1 1 1 1 1 1 1 1 1 1 1 1 1 1 1 1 1 1 1 2 2 2 2 2 2 2 2 2 2 2 2 2 2 2 2 2 2 2
1 1 1 1 1 1 1 1 1 0 0 0 0 0 0 0 0 0 0 1 1 1 1 1 1 1 1 1 1 1 1 1 1 1 1 1 1 2 2 2 1 2 2
0 0 0 0 -0 -0 -0 -0 -0 -0 -0 -1 -1 -1 -1 -1 -1 -0 -0 -0 -0 0 0 0 0 0 0 0 0 0 0 0 1 0 0 1 1 1 1 1 1 1 1
0 -0 -0 -1 -1 -1 -1 -1 -1 -1 -1 -1 -1 -1 -1 -1 -1 -1 -1 -1 -1 -1 -0 -0 -0 -1 -1 -0 -0 -0 -0 -0 -0 -0 -0 -0 -0 0 0 0 0 0 1
-1 -1 -1 -1 -1 -2 -2 -2 -2 -2 -2 -2 -2 -2 -2 -2 -2 -2 -2 -1 -1 -1 -1 -1 -1 -1 -1 -1 -1 -1 -1 -1 -1 -1 -1 -1 -1 -1 -0 -0 -0 -0 -0
-1 -1 -2 -2 -2 -2 -2 -2 -2 -2 -3 -3 -3 -3 -3 -3 -3 -2 -2 -2 -2 -2 -2 -2 -2 -2 -2 -1 -1 -1 -1 -1 -1 -1 -1 -1 -1 -1 -1 -1 -1 -1 -1
-2 -2 -2 -2 -3 -3 -3 -3 -3 -3 -3 -3 -3 -3 -3 -3 -3 -3 -3 -3 -3 -3 -3 -3 -2 -2 -2 -2 -2 -2 -2 -2 -2 -1 -1 -1 -2 -1 -1 -2 -1 -1 -1
-2 -3 -3 -3 -3 -3 -3 -3 -4 -4 -4 -4 -4 -4 -4 -4 -4 -4 -4 -4 -3 -3 -3 -3 -3 -3 -3 -3 -3 -3 -3 -2 -2 -2 -2 -2 -2 -2 -2 -2 -2 -2 -2
-3 -3 -3 -3 -4 -4 -4 -4 -4 -4 -4 -4 -5 -5 -5 -5 -5 -5 -4 -4 -4 -4 -4 -4 -4 -4 -3 -3 -3 -3 -3 -3 -3 -3 -3 -3 -3 -3 -3 -2 -2 -2 -2
-3 -3 -3 -4 -4 -4 -4 -4 -5 -5 -5 -5 -5 -5 -5 -5 -5 -5 -5 -5 -5 -5 -5 -4 -4 -4 -4 -4 -4 -4 -4 -4 -4 -4 -3 -3 -3 -3 -3 -3 -3 -3 -3
-4 -4 -4 -4 -4 -5 -5 -5 -5 -5 -5 -5 -6 -6 -6 -6 -6 -6 -6 -6 -6 -5 -5 -5 -5 -5 -5 -4 -5 -5 -5 -5 -4 -4 -4 -4 -4 -4 -4 -4 -4 -4 -3
-4 -4 -4 -5 -5 -5 -5 -6 -6 -6 -6 -6 -6 -6 -7 -7 -7 -7 -7 -6 -6 -6 -6 -6 -6 -6 -5 -5 -5 -5 -5 -5 -5 -5 -5 -5 -4 -4 -4 -4 -4 -4 -4
-5 -5 -5 -5 -5 -6 -6 -6 -6 -6 -7 -7 -7 -7 -7 -7 -7 -7 -7 -7 -7 -7 -7 -7 -7 -6 -6 -6 -6 -6 -6 -6 -6 -5 -5 -5 -5 -5 -5 -5 -5 -5 -5
-5 -5 -6 -6 -6 -6 -7 -7 -7 -7 -7 -7 -7 -7 -7 -8 -8 -8 -8 -8 -8 -8 -8 -7 -7 -7 -7 -7 -7 -7 -7 -6 -6 -6 -6 -5 -5 -5 -5 -5 -5 -5 -5
-6 -6 -6 -6 -7 -7 -7 -7 -7 -7 -8 -8 -8 -8 -8 -8 -8 -9 -9 -9 -9 -9 -9 -8 -8 -8 -8 -8 -8 -7 -7 -7 -7 -7 -7 -6 -6 -6 -6 -6 -6 -6 -6
-7 -7 -7 -7 -7 -7 -7 -8 -8 -8 -8 -8 -8 -9 -8 -9 -9 -9 -9 -9 -9 -9 -9 -9 -9 -9 -9 -8 -8 -8 -8 -8 -7 -7 -7 -7 -7 -6 -6 -6 -6 -6 -6
-7 -8 -8 -8 -8 -8 -8 -8 -8 -9 -9 -9 -9 -9 -9 -9 -9 -9 -10 -10 -10 -10 -10 -10 -10 -10 -9 -9 -9 -9 -8 -8 -8 -8 -8 -7 -7 -7 -7 -7 -7 -7 -7
-8 -8 -8 -8 -8 -8 -8 -9 -9 -9 -9 -9 -9 -9 -9 -10 -10 -10 -10 -10 -10 -10 -10 -10 -10 -10 -10 -9 -9 -9 -9 -9 -8 -8 -8 -8 -8 -8 -8 -8 -8 -7 -7
Wind_Speed
4 2 2 3 2 2 2 2 1 2 1 1 1 1 2 2 1 2 2 2 2 2 3 2 2 2 2 3 2 1 1 1 1 0 1 2 2 2 2 2 2 2 4
2 2 2 1 2 3 3 2 2 2 2 2 2 1 2 2 2 2 2 2 3 3 2 3 3 3 2 2 2 1 1 1 0 1 0 1 2 2 2 2 2 2 2
4 3 2 2 2 3 3 3 2 1 1 1 0 1 1 1 1 2 2 3 3 4 3 3 3 3 3 4 3 3 2 2 1 1 1 1 3 2 2 3 2 2 1
4 3 3 3 3 4 3 2 2 1 1 1 1 2 1 2 3 2 3 4 4 4 4 3 3 3 3 4 4 3 3 3 3 2 2 2 2 2 2 2 2 3 3
4 4 4 5 4 3 2 2 2 1 1 1 2 2 2 3 2 2 3 4 4 4 4 4 3 3 3 4 4 3 3 3 3 3 2 2 2 2 3 4 3 3 3
4 4 3 3 2 2 1 1 1 2 1 1 1 2 3 3 3 3 3 3 3 3 4 4 4 4 4 4 4 4 4 4 4 3 3 3 2 2 2 3 4 5 4
3 3 3 3 2 2 2 1 1 2 2 2 2 3 4 4 4 4 4 4 3 3 4 4 4 4 5 5 4 4 5 5 5 5 4 4 4 3 3 3 4 5 4
2 3 3 3 3 3 2 1 2 3 3 2 3 3 4 3 3 4 4 4 4 4 5 5 5 5 6 6 5 4 5 5 5 6 6 5 5 4 4 4 3 4 5
2 3 3 3 3 3 3 3 2 3 3 3 4 4 4 4 4 4 4 4 4 5 5 5 5 5 6 5 5 5 5 5 6 6 6 6 5 5 5 4 4 5 6
2 3 3 3 3 3 2 2 2 3 3 3 3 3 4 4 4 4 4 5 5 6 5 5 5 5 6 6 5 5 5 5 6 5 6 7 6 5 5 5 5 5 6
3 3 3 3 3 2 1 2 2 2 3 3 3 3 4 4 4 4 4 5 5 6 6 5 5 5 6 6 5 6 6 7 7 7 7 8 7 6 6 5 5 6 6
3 3 3 2 2 3 2 2 2 3 3 3 3 4 4 4 4 4 5 5 5 6 6 5 5 6 6 6 6 7 7 7 8 7 7 8 7 7 6 6 7 7 7
3 3 2 2 2 2 2 3 3 3 4 3 3 4 4 5 5 6 6 5 5 6 6 5 6 6 7 7 7 7 8 8 8 8 8 8 7 8 6 6 7 7 7
3 2 2 2 2 3 3 3 3 3 3 3 3 4 5 5 6 6 6 6 6 6 6 6 6 6 6 7 7 7 8 8 8 8 8 8 8 8 8 7 7 7 7
3 2 2 2 3 3 3 4 4 4 4 4 4 5 6 6 6 6 6 6 6 7 6 6 6 6 6 7 7 7 8 8 8 8 8 8 9 11 9 8 7 7 7
4 3 3 3 3 3 4 4 4 5 4 4 5 6 6 6 6 6 6 6 6 6 6 7 7 7 7 9 11 9 7 8 8 8 8 8 9 11 12 13 12 10 9
4 4 4 4 4 4 3 4 5 5 5 5 6 6 6 6 7 7 7 7 7 6 7 7 7 7 8 11 12 12 8 7 7 7 7 7 8 10 8 10 12 12 13
4 4 4 4 4 3 3 4 4 4 5 5 6 6 6 7 7 7 7 7 6 6 6 7 7 7 8 11 11 11 8 7 7 7 8 8 8 8 8 8 9 9 10
4 4 4 4 3 3 3 3 4 4 5 6 7 7 6 7 7 7 7 7 7 7 6 6 6 7 8 10 10 10 6 6 7 7 7 8 8 11 12 9 9 9 9
3 3 3 2 3 3 3 3 4 4 6 7 7 7 6 7 7 8 8 7 7 7 7 7 6 6 7 9 10 10 5 6 6 6 7 10 10 11 12 9 9 9 8
4 3 2 2 3 3 2 3 4 5 7 7 7 7 6 7 7 7 7 6 6 6 6 7 6 6 7 8 10 10 5 5 6 6 6 7 11 12 11 10 8 10 8
3 2 2 3 3 2 2 3 5 6 6 6 6 7 7 6 6 6 6 6 6 6 6 6 6 5 6 7 8 9 9 8 6 6 6 7 10 11 11 9 9 11 9
3 2 2 3 3 3 2 3 5 5 5 6 6 6 7 6 6 6 6 6 5 5 5 5 5 5 5 5 9 10 11 10 6 6 8 9 9 8 7 9 9 8 6
3 3 2 3 4 4 4 4 5 5 5 5 6 6 6 6 6 5 5 5 5 5 5 5 5 5 5 5 5 5 6 7 7 6 7 8 8 6 6 6 6 4 5
3 3 2 3 5 5 5 5 5 4 4 5 5 5 5 5 5 5 5 6 5 5 5 5 5 6 6 7 9 7 5 5 5 5 3 3 3 3 3 4 4 3 4
3 3 4 4 4 4 5 6 5 4 4 5 5 4 4 5 5 5 6 8 8 10 10 9 9 8 9 11 11 11 11 10 8 5 3 4 4 4 4 4 4 4 4
Wind_Direction
253 246 231 214 203 209 212 220 231 249 237 258 246 261 274 267 270 258 238 235 228 237 219 212 205 192 197 210 219 215 217 280 262 50 322 304 266 233 219 218 219 230 227
280 264 245 230 212 211 221 231 232 235 227 230 227 244 269 261 267 270 268 254 246 242 239 206 209 204 202 211 217 177 194 247 272 165 145 307 290 271 254 236 219 225 228
231 240 243 249 249 236 230 232 233 237 245 240 220 326 344 326 294 287 289 282 263 251 247 230 208 202 198 210 221 196 183 211 255 206 183 191 239 281 261 237 230 226 230
235 237 238 250 250 247 239 234 234 238 241 171 184 192 231 252 263 264 275 286 268 260 254 240 219 202 208 213 219 208 199 190 222 244 245 236 216 228 267 259 250 248 244
232 231 234 237 247 253 242 235 238 257 269 217 205 208 257 257 272 281 283 287 282 266 262 245 229 217 214 216 211 211 206 202 215 227 240 254 268 242 237 259 261 266 252
245 246 248 252 267 290 289 271 255 278 277 257 240 233 260 268 269 270 269 273 280 280 274 262 241 234 225 218 216 213 213 215 217 229 229 227 223 234 237 251 258 261 258
244 265 267 260 265 274 278 286 281 298 291 266 257 256 260 250 246 256 254 263 273 281 276 273 258 247 240 229 222 219 224 222 221 225 234 237 237 234 244 253 266 269 271
249 267 266 249 246 251 263 274 275 293 299 283 273 268 262 254 257 257 255 256 259 269 270 267 262 257 247 242 227 227 229 229 228 234 235 242 244 238 238 239 253 274 269
267 278 290 282 262 253 248 247 259 289 298 292 292 289 278 268 265 268 269 267 268 272 267 267 268 266 257 250 233 230 233 232 232 236 237 242 245 239 241 241 236 241 262
287 291 297 297 285 266 263 268 265 272 291 296 292 298 289 275 272 273 272 271 273 270 269 270 268 268 262 253 242 239 236 236 241 239 240 244 248 244 239 239 242 241 247
278 284 295 298 301 312 306 300 300 304 306 304 302 307 301 293 289 277 272 274 278 274 267 267 267 265 263 252 244 243 236 237 244 245 244 247 247 248 244 240 242 243 245
290 285 292 308 326 327 326 317 307 305 303 304 308 308 309 303 291 284 280 279 277 273 269 267 265 264 262 252 242 244 243 238 244 245 246 250 250 250 248 242 244 247 246
303 307 309 315 321 321 320 318 312 307 311 316 316 317 312 305 292 284 283 281 276 275 273 267 263 262 260 255 248 243 242 239 242 242 241 246 246 250 252 250 250 251 252
286 298 311 312 316 315 310 310 313 316 321 322 316 311 304 297 294 290 285 282 278 275 272 269 264 263 265 261 254 247 245 242 242 239 239 242 241 244 248 252 251 252 252
296 295 299 303 315 318 316 317 318 322 324 322 315 308 306 306 303 301 293 287 285 282 276 273 271 267 264 263 256 248 248 248 245 243 242 243 245 248 248 251 247 246 249
286 291 299 302 303 305 310 318 317 316 322 319 312 313 316 314 310 306 302 297 291 287 281 273 269 268 268 273 273 265 252 247 245 248 247 247 248 254 256 257 257 253 249
273 280 285 280 284 288 292 298 303 314 320 316 314 317 316 314 312 310 310 305 299 297 291 280 272 269 273 275 274 272 263 251 246 245 250 256 257 258 252 260 264 262 261
268 275 281 283 287 290 298 302 309 316 318 318 318 317 316 313 312 310 307 304 300 296 291 288 283 276 278 281 279 278 270 259 252 247 244 247 252 255 254 252 255 254 256
258 266 264 267 281 292 300 309 313 316 316 314 313 313 312 312 312 310 307 304 302 299 293 292 288 283 287 288 283 279 268 260 255 251 248 248 248 258 256 253 254 257 258
267 272 278 287 287 295 301 303 305 311 307 305 306 307 307 306 306 305 305 304 302 300 297 298 294 288 286 289 286 280 265 263 262 256 253 256 256 261 256 246 247 253 258
277 281 275 278 277 286 295 295 299 297 298 302 304 307 308 305 301 303 304 304 303 303 298 293 294 291 290 291 290 285 270 261 265 264 259 255 261 262 259 255 248 255 259
289 283 280 290 292 285 290 297 298 301 305 306 308 309 310 310 313 313 312 310 305 303 301 299 299 295 293 293 290 286 281 278 268 266 264 263 266 264 260 257 257 262 261
297 293 280 300 308 299 283 285 296 307 311 313 312 311 314 315 314 313 313 314 310 305 303 303 304 307 306 298 293 291 290 286 277 270 273 277 271 268 265 266 267 265 259
302 301 305 304 303 303 300 286 294 304 308 308 310 312 314 316 316 313 310 309 308 304 300 300 301 304 306 305 302 292 294 293 287 284 286 289 286 278 276 276 273 263 259
299 293 281 280 288 299 300 301 302 305 308 306 308 311 312 309 311 309 303 304 295 299 300 293 293 299 300 306 313 307 298 292 282 288 282 281 282 276 273 270 266 261 265
287 288 283 285 290 296 298 300 300 296 299 308 309 309 307 307 309 310 309 305 303 308 309 309 304 298 300 307 311 312 311 309 303 291 274 274 271 270 273 273 275 266 263
Height
1509 1508 1508 1508 1508 1508 1508 1508 1508 1508 1508 1508 1508 1508 1509 1509 1510 1510 1511 1512 1512 1513 1514 1514 1515 1516 1517 1518 1519 1519 1520 1520 1521 1521 1521 1521 1522 1522 1522 1523 1524 1525 1526
1505 1505 1505 1505 1505 1505 1505 1505 1505 1505 1505 1505 1505 1505 1506 1505 1506 1507 1507 1508 1508 1509 1510 1510 1510 1511 1512 1514 1515 1515 1516 1517 1518 1518 1518 1518 1519 1518 1519 1519 1520 1521 1522
1503 1502 1502 1502 1502 1502 1502 1502 1502 1502 1502 1502 1502 1502 1502 1502 1503 1503 1504 1504 1504 1505 1506 1505 1506 1507 1508 1509 1510 1511 1512 1512 1514 1515 1516 1516 1514 1514 1514 1515 1516 1517 1518
1501 1500 1500 1499 1499 1499 1500 1500 1500 1500 1499 1499 1499 1499 1498 1498 1498 1499 1500 1500 1500 1501 1501 1501 1501 1502 1503 1504 1506 1506 1507 1509 1509 1511 1511 1513 1512 1512 1510 1511 1511 1513 1513
1498 1498 1498 1498 1498 1497 1497 1497 1497 1497 1497 1496 1496 1496 1495 1495 1495 1495 1496 1496 1496 1496 1496 1496 1496 1498 1499 1500 1501 1502 1503 1504 1505 1506 1507 1507 1508 1508 1507 1505 1506 1508 1508
1496 1496 1496 1496 1495 1495 1495 1494 1494 1494 1494 1493 1493 1492 1492 1492 1491 1491 1491 1491 1492 1491 1491 1491 1492 1493 1494 1495 1496 1497 1498 1499 1500 1501 1502 1503 1503 1503 1503 1502 1501 1502 1502
1494 1494 1493 1492 1492 1492 1492 1491 1491 1490 1490 1490 1490 1489 1489 1489 1488 1487 1487 1487 1487 1487 1487 1487 1488 1488 1488 1489 1491 1492 1493 1494 1495 1496 1497 1498 1499 1499 1499 1499 1498 1498 1497
1492 1491 1491 1491 1490 1489 1489 1488 1488 1488 1487 1487 1487 1486 1486 1485 1484 1484 1483 1482 1482 1482 1483 1483 1483 1483 1483 1484 1485 1486 1487 1488 1489 1490 1491 1492 1493 1494 1495 1495 1495 1493 1492
1490 1490 1489 1489 1488 1487 1487 1486 1486 1485 1485 1484 1483 1482 1482 1481 1480 1480 1479 1479 1479 1478 1478 1477 1478 1478 1478 1479 1479 1480 1481 1482 1483 1484 1485 1486 1487 1488 1489 1490 1491 1492 1488
1489 1488 1488 1487 1486 1486 1485 1484 1484 1483 1482 1481 1480 1480 1479 1478 1476 1475 1475 1474 1474 1475 1474 1473 1473 1473 1473 1474 1474 1474 1475 1476 1477 1478 1479 1480 1480 1482 1483 1484 1484 1485 1485
1488 1487 1486 1485 1484 1483 1483 1482 1481 1481 1480 1479 1477 1476 1475 1474 1472 1471 1470 1470 1469 1469 1468 1468 1468 1467 1468 1468 1468 1468 1470 1470 1471 1472 1472 1473 1474 1475 1476 1477 1478 1478 1479
1487 1486 1485 1484 1482 1481 1480 1479 1479 1478 1476 1475 1473 1472 1471 1469 1468 1466 1466 1465 1465 1464 1463 1463 1463 1463 1463 1462 1462 1462 1464 1464 1464 1465 1466 1467 1468 1468 1469 1470 1470 1471 1472
1485 1484 1483 1482 1480 1479 1478 1477 1476 1475 1473 1472 1470 1468 1467 1465 1463 1462 1461 1460 1460 1459 1458 1458 1457 1457 1457 1456 1456 1457 1457 1457 1457 1459 1459 1460 1461 1461 1462 1463 1463 1464 1465
1483 1482 1480 1479 1478 1477 1476 1475 1473 1472 1470 1468 1466 1465 1463 1461 1459 1458 1456 1455 1454 1453 1452 1451 1450 1450 1450 1450 1450 1450 1450 1450 1451 1452 1452 1453 1454 1455 1456 1456 1456 1457 1458
1480 1479 1478 1477 1476 1475 1474 1472 1470 1469 1467 1465 1463 1461 1459 1457 1455 1453 1451 1450 1449 1447 1446 1445 1444 1443 1443 1443 1443 1443 1443 1443 1443 1444 1445 1446 1447 1448 1449 1449 1450 1450 1451
1478 1477 1476 1475 1473 1472 1471 1469 1467 1465 1463 1461 1459 1456 1454 1452 1450 1448 1446 1444 1443 1441 1440 1438 1437 1436 1436 1436 1436 1436 1436 1436 1436 1436 1437 1438 1439 1440 1441 1442 1442 1443 1443
1476 1474 1473 1472 1471 1469 1467 1465 1464 1462 1460 1457 1455 1452 1450 1448 1445 1443 1441 1438 1437 1435 1433 1431 1430 1429 1429 1429 1429 1429 1430 1429 1429 1429 1430 1431 1431 1433 1433 1433 1434 1435 1435
1473 1471 1470 1469 1468 1466 1464 1463 1461 1459 1457 1454 1451 1449 1446 1443 1441 1438 1436 1433 1431 1429 1427 1425 1424 1423 1422 1422 1422 1423 1423 1422 1422 1422 1423 1424 1424 1425 1425 1425 1426 1426 1427
1470 1469 1468 1466 1464 1463 1461 1459 1457 1455 1453 1451 1448 1445 1442 1439 1437 1434 1431 1428 1426 1423 1421 1419 1418 1416 1415 1415 1415 1416 1416 1415 1414 1415 1416 1416 1416 1417 1419 1419 1418 1418 1419
1466 1465 1464 1463 1461 1459 1458 1456 1454 1451 1449 1447 1444 1441 1439 1436 1433 1430 1427 1424 1421 1418 1416 1414 1412 1411 1409 1409 1409 1410 1410 1409 1408 1409 1409 1410 1410 1410 1411 1411 1411 1410 1411
1463 1462 1460 1459 1457 1456 1454 1452 1450 1448 1446 1443 1441 1438 1435 1432 1429 1426 1423 1420 1417 1415 1412 1410 1408 1406 1404 1403 1404 1404 1404 1403 1402 1402 1402 1403 1403 1404 1404 1404 1404 1404 1405
1458 1457 1456 1455 1453 1452 1450 1448 1446 1445 1442 1440 1437 1434 1431 1428 1425 1422 1419 1417 1414 1411 1408 1405 1403 1401 1400 1399 1399 1399 1399 1399 1397 1396 1396 1396 1397 1397 1397 1398 1397 1398 1399
1455 1453 1452 1451 1450 1448 1447 1444 1443 1441 1438 1436 1433 1430 1427 1425 1422 1419 1416 1413 1410 1407 1405 1402 1400 1398 1397 1396 1395 1394 1394 1393 1392 1391 1391 1391 1391 1391 1391 1391 1391 1392 1392
1452 1450 1449 1447 1446 1445 1443 1441 1439 1437 1434 1432 1429 1427 1424 1421 1418 1416 1413 1410 1407 1405 1402 1400 1397 1395 1394 1392 1391 1390 1389 1388 1387 1386 1386 1386 1385 1385 1385 1385 1385 1385 1385
1449 1447 1446 1444 1442 1441 1440 1438 1436 1433 1431 1428 1426 1423 1421 1418 1415 1412 1410 1407 1405 1403 1401 1398 1396 1393 1391 1389 1389 1387 1385 1383 1382 1381 1380 1380 1379 1379 1379 1379 1379 1379 1379
1446 1445 1443 1441 1439 1438 1436 1434 1432 1430 1427 1425 1422 1420 1417 1415 1412 1409 1407 1404 1402 1400 1398 1395 1394 1391 1389 1387 1385 1383 1381 1379 1378 1377 1375 1374 1374 1374 1374 1373 1373 1373 1373